Wind_Speed
16 17 17 18 18 18 18 17 16 16 17 16 16 16 16 16 17 16 16 15 15 16 16 16 15 15 15 15 14 14 14 13 13 12 12 11 11 10 10 9 9 9 8 8 8 7 7 6 6
17 18 18 19 19 19 18 18 18 18 18 18 18 18 18 18 18 18 17 17 17 17 18 18 18 17 17 16 16 16 15 14 14 14 14 13 13 13 12 11 11 10 10 10 9 9 8 8 7
19 19 20 20 20 19 19 18 18 19 19 20 20 20 20 20 20 20 20 19 20 20 20 19 19 19 19 18 18 17 17 16 16 15 16 15 15 15 14 13 13 12 12 12 11 11 10 9 9
19 20 21 21 20 20 20 19 19 20 21 21 22 22 22 21 21 21 21 21 21 21 21 21 21 20 21 21 20 19 19 18 18 17 17 17 17 17 16 16 15 14 14 13 13 13 12 11 11
20 20 21 21 21 21 21 21 21 22 22 23 24 24 24 23 23 23 23 23 23 22 22 22 22 22 22 22 22 22 21 20 19 19 19 18 18 18 18 17 17 16 15 15 15 14 14 13 12
21 22 22 22 21 21 23 23 23 24 25 25 26 26 25 25 25 25 25 24 24 23 23 23 23 24 24 23 23 23 23 22 21 20 20 20 20 19 19 19 18 18 17 17 16 16 15 15 14
22 23 23 22 22 23 23 24 25 26 26 27 27 27 26 27 26 26 26 26 26 26 25 25 25 26 26 26 25 25 25 25 24 23 22 22 22 22 21 21 21 20 19 19 18 18 17 17 16
23 24 23 23 24 24 25 25 26 27 27 28 28 28 28 28 28 27 27 27 28 28 28 28 28 28 28 28 27 27 27 27 26 25 25 24 24 24 24 24 23 22 22 21 21 20 20 19 18
25 25 25 25 25 25 26 27 27 27 28 28 28 28 29 29 29 29 29 29 29 29 29 29 29 29 29 29 29 28 29 29 28 28 27 27 27 26 26 26 25 24 24 23 23 23 22 21 20
27 27 26 27 27 27 28 28 28 28 28 28 28 28 29 29 30 31 31 31 30 31 30 30 30 30 31 31 31 31 30 30 30 30 30 30 29 29 28 28 27 26 26 26 25 24 23 23 22
28 28 28 29 29 30 30 30 30 29 29 29 29 29 30 29 30 31 32 32 32 32 32 32 32 32 32 33 33 33 32 32 33 32 31 31 31 31 30 30 29 29 28 27 26 25 25 24 24
30 30 30 31 31 32 32 32 32 31 31 31 31 31 31 31 31 32 32 33 34 33 33 33 33 33 34 34 34 34 34 34 34 34 33 33 33 33 32 31 31 30 30 29 28 27 26 26 25
32 31 32 32 33 33 33 32 32 31 32 33 33 33 33 33 33 33 33 34 34 35 35 34 35 34 34 35 36 36 35 35 35 36 35 35 34 34 34 34 33 32 32 32 31 30 29 28 27
33 33 33 33 33 34 34 33 33 32 34 35 35 35 35 35 35 36 36 35 36 37 37 37 37 36 36 37 37 37 37 36 36 36 36 36 35 35 35 35 35 35 34 34 33 32 31 30 29
34 34 34 34 34 35 36 36 35 35 36 36 36 36 37 37 37 38 38 38 37 38 38 39 40 39 38 38 38 38 38 38 37 38 37 37 36 36 36 36 36 36 35 35 34 33 33 32 30
35 35 35 35 36 37 38 38 37 37 38 38 38 38 39 39 39 39 39 39 39 39 39 40 40 41 40 39 39 39 39 39 39 39 39 39 38 37 37 37 38 38 37 36 36 35 35 33 32
35 35 36 37 37 38 39 38 37 39 40 40 40 40 40 41 40 40 40 41 41 41 40 41 41 41 42 42 41 41 40 41 41 41 40 40 40 39 38 38 39 39 39 38 38 37 36 35 34
35 36 37 38 38 39 40 39 39 40 41 42 42 42 41 42 42 42 42 42 42 42 42 42 43 42 42 42 42 42 41 41 41 42 41 41 41 40 40 40 40 40 40 39 38 38 37 36 36
37 37 37 38 38 40 41 41 40 41 42 43 43 43 42 43 43 44 44 43 43 43 43 44 44 44 43 43 43 43 42 42 42 42 42 43 42 42 42 41 41 41 41 41 40 40 39 38 38
37 38 38 38 39 41 41 41 41 41 42 43 43 44 44 44 44 44 44 44 43 43 43 44 44 45 45 44 44 44 44 44 43 43 43 44 43 42 41 42 42 42 42 42 42 42 42 40 39
37 38 39 39 40 41 42 42 41 41 42 43 43 43 43 43 44 44 44 44 43 43 43 44 46 45 45 45 44 44 44 44 44 45 44 44 44 44 43 43 42 42 42 43 43 42 42 42 41
38 38 40 40 40 41 41 43 40 41 41 42 41 41 42 42 43 44 44 43 43 44 43 45 46 45 45 45 44 44 43 44 45 45 45 45 45 45 45 45 43 43 43 44 43 43 42 42 42
37 38 40 40 40 41 40 42 40 40 40 40 40 41 41 41 41 42 43 43 43 44 44 44 45 45 46 46 45 45 44 44 44 45 45 46 46 45 45 45 45 45 45 45 45 45 44 43 43
37 38 39 40 40 40 39 41 41 39 40 40 41 41 40 41 41 42 42 42 43 44 44 44 45 45 45 45 45 45 44 44 44 44 44 45 46 46 46 45 45 46 47 47 46 45 45 44 44
36 37 38 40 39 40 39 40 39 38 38 39 40 40 40 40 40 40 41 42 42 43 43 44 44 44 44 45 45 45 45 44 44 44 44 45 46 46 47 47 47 46 47 48 47 46 45 45 45
35 36 37 39 40 40 40 40 38 37 36 38 39 39 38 39 39 39 40 41 41 42 42 43 42 43 43 45 45 45 46 46 44 44 45 46 46 46 48 48 48 47 48 49 49 48 47 48 47
35 36 37 39 41 41 41 40 38 36 36 37 37 37 37 37 37 37 39 39 40 40 40 41 42 42 43 44 45 45 46 46 46 45 45 46 46 47 48 48 49 48 48 50 51 50 48 49 49
35 36 37 38 40 42 42 40 38 36 36 36 37 37 36 37 37 38 38 39 40 39 40 40 41 41 42 43 44 45 45 46 46 46 46 46 47 48 48 48 49 49 49 50 50 49 48 49 50
34 35 37 38 39 41 42 40 39 38 36 36 36 36 36 36 37 38 38 39 39 39 39 39 40 40 41 42 43 44 44 45 46 46 47 46 47 48 48 48 49 49 49 49 50 50 48 48 49
35 35 36 37 38 40 42 40 38 37 35 35 35 35 34 36 37 37 37 37 39 39 38 38 38 39 40 41 43 44 44 44 45 46 47 46 47 48 49 48 49 49 50 51 51 51 49 49 49
Wind_Direction
257 259 261 261 262 263 265 267 266 265 263 262 261 261 261 262 262 262 263 261 261 262 262 264 264 263 262 262 260 257 254 253 254 254 255 255 253 252 251 251 250 250 252 254 256 257 256 253 255
259 261 262 262 262 263 265 267 267 266 265 262 262 262 262 262 262 262 262 262 262 262 264 266 265 264 263 260 258 256 255 254 254 254 255 254 252 251 250 250 251 252 251 252 253 252 253 252 250
260 261 262 264 264 265 266 267 266 265 264 263 263 263 263 263 263 262 263 263 263 263 264 265 265 263 261 260 258 254 254 254 254 255 254 252 251 249 248 249 251 252 251 251 251 251 251 250 248
261 261 263 264 265 266 267 267 265 265 265 266 265 265 265 264 262 262 263 263 263 263 263 263 263 263 261 259 258 254 253 253 253 252 250 249 249 249 248 247 250 250 250 249 249 250 249 249 246
263 263 264 266 266 267 268 268 266 265 265 266 266 266 265 263 262 262 262 262 263 263 262 262 262 261 260 259 258 256 254 253 253 253 252 251 250 249 247 246 247 249 249 248 249 250 249 247 247
265 266 267 268 268 268 268 268 268 267 266 266 266 265 264 263 262 262 261 261 261 262 262 262 261 261 260 258 257 257 254 254 254 254 252 252 252 251 249 245 245 247 247 248 250 250 250 249 247
267 268 269 270 270 270 269 269 269 268 268 267 266 264 263 262 261 261 261 260 261 262 262 261 261 260 260 259 258 257 256 255 255 254 252 251 251 250 249 247 246 245 246 247 248 249 248 250 249
268 269 271 273 273 271 270 269 269 269 269 269 267 264 262 261 260 260 259 259 260 260 261 261 261 260 260 259 259 258 257 256 255 254 252 252 252 251 250 249 247 246 246 246 246 247 248 249 249
270 271 274 275 273 272 270 270 269 269 269 268 267 265 263 261 260 260 259 258 260 260 261 261 261 261 259 259 258 257 256 256 255 254 253 252 251 251 250 250 249 247 246 246 246 246 246 247 248
271 273 274 274 273 272 271 271 270 269 267 266 266 265 263 262 261 261 261 261 260 260 261 261 261 261 259 258 257 256 255 255 255 254 253 252 251 250 249 248 248 247 246 245 245 246 247 247 247
272 273 273 273 273 272 272 271 270 268 265 265 264 264 263 262 261 261 261 261 262 262 262 262 262 261 259 258 256 256 255 254 255 254 253 253 252 250 248 247 247 247 246 245 244 244 245 247 248
272 272 272 272 272 272 272 271 270 268 267 265 265 264 263 263 262 262 261 262 261 262 263 264 263 261 259 257 256 256 255 254 254 254 254 253 252 251 248 247 246 245 245 244 243 243 246 247 247
273 272 273 273 272 272 272 271 269 268 267 266 265 264 264 263 263 262 262 262 261 260 261 263 262 260 259 257 256 256 255 255 255 255 254 253 252 251 249 247 246 245 245 245 245 245 246 247 247
275 274 274 273 272 271 271 270 270 268 267 267 266 264 264 264 263 263 262 261 261 261 261 261 261 261 259 257 255 254 255 255 255 255 254 253 253 251 248 247 247 245 245 245 244 244 245 245 246
276 275 274 273 272 271 271 270 270 268 267 268 268 266 264 264 264 264 263 261 260 261 261 261 261 260 260 259 257 255 255 255 255 254 253 253 252 251 249 247 246 245 244 244 244 244 243 244 245
278 276 275 274 273 272 271 270 269 268 267 268 268 267 265 264 264 264 263 261 260 260 259 259 259 259 258 258 258 256 255 255 254 252 251 252 251 250 250 248 246 245 243 242 243 244 243 245 245
278 277 277 275 273 272 271 270 269 269 268 268 268 268 266 264 263 263 263 262 261 261 260 258 259 259 258 258 258 257 256 255 253 251 250 250 249 249 249 247 246 244 243 243 243 243 243 244 246
280 278 277 276 274 273 272 271 270 270 270 269 269 268 266 264 263 263 263 263 261 261 260 259 258 259 259 258 257 256 254 253 252 251 250 249 249 247 247 246 245 244 243 242 242 242 242 244 246
279 279 279 278 277 276 274 274 272 271 272 271 269 268 267 264 263 263 263 263 261 261 261 260 258 257 258 257 256 254 253 252 251 251 249 249 248 248 246 245 244 243 242 241 241 240 241 244 245
279 279 279 279 278 278 277 275 274 273 272 272 271 270 268 265 263 263 263 262 261 261 261 259 259 258 258 257 257 255 254 252 251 251 250 249 248 247 246 245 244 243 241 240 240 240 241 242 244
279 279 279 280 279 279 280 278 276 274 273 273 272 270 269 267 264 262 262 262 261 261 261 260 260 258 257 256 256 255 253 251 250 250 250 250 248 247 246 245 243 241 240 240 240 240 240 242 244
280 280 280 280 280 282 282 282 279 278 275 274 273 271 269 268 264 262 261 261 261 261 261 260 259 258 257 256 256 255 253 252 251 250 249 249 248 246 246 245 242 240 240 238 238 239 240 242 243
282 282 281 281 281 282 284 284 283 280 278 276 275 272 270 268 264 262 261 261 261 262 261 259 258 257 257 256 256 255 254 253 251 250 249 248 247 247 246 244 242 241 240 239 239 237 239 241 243
284 284 283 282 283 283 286 287 285 284 281 279 277 275 271 268 265 263 262 261 262 262 261 260 258 257 256 256 255 255 254 252 251 250 248 248 247 246 245 244 242 241 240 239 239 239 240 242 243
285 286 286 285 284 286 288 288 289 289 284 281 279 276 272 268 266 263 262 262 262 261 260 260 259 257 256 254 254 253 253 252 251 250 248 248 247 246 244 244 242 241 240 239 239 240 240 242 243
286 287 287 287 287 288 289 289 290 290 287 283 281 277 272 268 266 264 262 262 262 261 259 259 258 257 255 254 253 253 253 252 250 250 249 247 247 246 245 244 243 242 241 241 240 241 242 243 244
287 287 287 287 287 288 288 289 290 290 287 283 279 275 270 267 266 265 264 261 260 261 259 258 258 257 256 254 253 252 251 251 251 250 249 248 247 245 244 244 244 243 242 241 242 243 244 245 245
287 288 289 288 289 290 290 291 292 290 287 283 279 274 269 267 266 266 264 262 262 261 260 259 258 257 257 255 253 252 251 251 250 249 248 248 247 245 244 244 244 244 242 241 242 243 244 245 246
288 289 289 289 288 290 291 291 292 292 288 285 280 275 271 268 267 267 265 263 261 261 261 260 259 258 257 255 254 252 251 251 250 249 248 248 248 246 244 245 244 244 243 242 243 243 244 245 246
290 290 290 290 289 288 290 291 293 291 287 285 281 277 274 271 270 270 268 266 263 261 261 260 259 259 257 255 254 254 252 252 251 250 249 248 248 247 246 246 246 245 244 244 244 244 244 244 246
Height
5812 5812 5813 5814 5815 5816 5816 5818 5818 5819 5819 5820 5821 5822 5823 5824 5825 5828 5827 5827 5827 5828 5828 5829 5829 5830 5831 5832 5832 5833 5834 5835 5836 5837 5838 5839 5840 5841 5842 5843 5844 5845 5846 5846 5847 5848 5849 5849 5850
5808 5809 5810 5811 5811 5812 5814 5814 5815 5816 5816 5817 5817 5818 5819 5820 5821 5822 5822 5823 5823 5824 5825 5825 5826 5827 5827 5828 5829 5830 5831 5832 5833 5834 5835 5837 5838 5839 5840 5841 5842 5843 5844 5845 5845 5846 5847 5848 5849
5805 5805 5807 5807 5807 5809 5810 5811 5811 5811 5812 5813 5813 5814 5815 5816 5817 5817 5818 5819 5819 5820 5820 5821 5822 5823 5823 5824 5825 5826 5827 5828 5829 5831 5832 5833 5835 5836 5837 5838 5839 5841 5842 5843 5844 5844 5845 5846 5847
5801 5802 5802 5803 5803 5805 5805 5806 5807 5807 5807 5808 5809 5809 5810 5811 5812 5813 5813 5814 5815 5816 5816 5817 5818 5818 5819 5820 5821 5822 5823 5824 5826 5827 5829 5830 5831 5833 5834 5835 5837 5838 5839 5840 5841 5842 5843 5844 5845
5797 5798 5798 5798 5799 5800 5801 5801 5802 5802 5802 5803 5803 5804 5805 5806 5807 5807 5808 5809 5810 5811 5812 5812 5813 5814 5815 5816 5817 5818 5819 5820 5821 5823 5824 5826 5827 5829 5830 5832 5833 5835 5836 5838 5839 5840 5841 5842 5843
5793 5793 5794 5794 5795 5795 5795 5796 5796 5797 5797 5797 5797 5798 5799 5800 5801 5802 5803 5804 5805 5806 5806 5807 5808 5809 5810 5811 5812 5813 5814 5815 5816 5818 5820 5822 5823 5825 5826 5828 5830 5831 5833 5834 5836 5837 5838 5839 5840
5788 5788 5788 5789 5789 5790 5790 5790 5790 5790 5790 5791 5791 5792 5793 5793 5794 5795 5796 5798 5799 5800 5800 5801 5802 5803 5804 5805 5806 5807 5809 5810 5812 5813 5815 5817 5818 5820 5822 5824 5825 5827 5829 5830 5832 5833 5835 5836 5837
5782 5783 5782 5783 5783 5784 5783 5783 5783 5783 5783 5784 5784 5785 5786 5787 5787 5788 5790 5791 5792 5793 5794 5795 5795 5796 5797 5798 5800 5801 5803 5804 5806 5808 5809 5811 5813 5815 5817 5818 5820 5822 5824 5826 5828 5829 5831 5833 5834
5776 5777 5777 5777 5777 5777 5776 5776 5776 5776 5776 5776 5776 5777 5778 5779 5780 5781 5783 5784 5785 5786 5787 5788 5788 5789 5790 5791 5792 5794 5796 5798 5800 5801 5803 5805 5807 5809 5811 5813 5815 5817 5819 5821 5823 5825 5826 5828 5830
5769 5770 5771 5770 5770 5769 5769 5768 5768 5769 5769 5769 5769 5769 5769 5771 5772 5773 5775 5776 5778 5779 5780 5780 5781 5781 5782 5783 5784 5786 5788 5790 5792 5794 5797 5799 5801 5803 5805 5807 5809 5811 5813 5816 5818 5820 5822 5824 5826
5761 5762 5763 5762 5761 5761 5761 5761 5760 5761 5761 5762 5761 5762 5762 5763 5764 5765 5767 5768 5770 5771 5772 5772 5773 5773 5774 5775 5777 5778 5781 5783 5785 5787 5789 5791 5793 5795 5798 5800 5803 5805 5808 5810 5812 5814 5817 5819 5821
5754 5754 5754 5754 5753 5753 5752 5752 5752 5752 5754 5753 5753 5753 5754 5755 5756 5757 5759 5760 5761 5762 5764 5764 5764 5765 5766 5767 5769 5770 5772 5774 5776 5779 5781 5783 5786 5788 5790 5793 5796 5799 5801 5804 5806 5809 5811 5813 5815
5745 5745 5745 5744 5744 5743 5743 5743 5743 5744 5744 5743 5744 5744 5745 5746 5747 5748 5750 5751 5752 5753 5755 5755 5755 5756 5757 5759 5760 5762 5764 5766 5768 5770 5772 5774 5777 5779 5781 5784 5788 5791 5794 5797 5800 5802 5805 5807 5809
5736 5736 5735 5735 5734 5734 5733 5734 5734 5735 5734 5734 5734 5735 5736 5737 5738 5739 5740 5742 5743 5744 5745 5746 5746 5747 5748 5750 5751 5753 5755 5757 5759 5761 5763 5765 5767 5770 5772 5775 5779 5782 5785 5788 5792 5795 5798 5801 5803
5727 5726 5726 5726 5725 5724 5724 5724 5725 5725 5724 5724 5725 5726 5727 5727 5728 5729 5730 5731 5733 5734 5735 5736 5737 5738 5739 5740 5742 5743 5745 5747 5749 5751 5753 5756 5758 5760 5763 5767 5770 5773 5777 5780 5784 5787 5791 5793 5796
5717 5716 5716 5716 5715 5714 5714 5715 5716 5715 5714 5714 5715 5715 5716 5717 5718 5719 5720 5721 5722 5723 5724 5725 5726 5728 5729 5731 5732 5733 5735 5737 5739 5741 5744 5746 5749 5752 5754 5757 5761 5764 5768 5771 5775 5779 5783 5786 5789
5708 5707 5706 5706 5705 5703 5703 5704 5705 5704 5703 5703 5704 5704 5704 5706 5707 5708 5709 5710 5711 5712 5713 5715 5716 5718 5719 5721 5722 5723 5725 5727 5729 5731 5734 5737 5740 5742 5745 5748 5751 5754 5758 5762 5766 5770 5774 5778 5781
5699 5697 5696 5695 5694 5692 5692 5693 5694 5692 5692 5692 5692 5692 5693 5694 5695 5696 5697 5698 5699 5701 5702 5704 5705 5707 5708 5710 5711 5713 5714 5716 5718 5721 5724 5727 5729 5732 5735 5739 5741 5745 5749 5753 5757 5761 5765 5769 5772
5689 5687 5686 5685 5683 5682 5681 5681 5682 5681 5680 5680 5680 5680 5681 5682 5683 5684 5685 5686 5688 5689 5691 5692 5694 5696 5697 5699 5700 5702 5704 5706 5708 5710 5713 5716 5719 5722 5725 5728 5731 5735 5739 5743 5747 5751 5756 5759 5763
5679 5678 5676 5675 5673 5671 5670 5670 5671 5670 5668 5667 5668 5668 5668 5669 5670 5672 5673 5674 5676 5677 5679 5680 5682 5683 5685 5687 5689 5691 5693 5695 5698 5699 5702 5705 5708 5711 5714 5718 5721 5725 5729 5733 5737 5742 5746 5749 5753
5670 5668 5666 5665 5663 5661 5659 5659 5660 5658 5656 5655 5655 5655 5655 5656 5657 5658 5660 5661 5663 5665 5666 5667 5669 5671 5673 5675 5677 5678 5680 5683 5686 5689 5691 5694 5697 5700 5704 5707 5710 5714 5718 5722 5727 5731 5736 5740 5744
5661 5659 5657 5655 5653 5651 5650 5647 5650 5647 5645 5643 5643 5642 5642 5642 5644 5645 5647 5649 5651 5652 5654 5655 5657 5659 5661 5662 5664 5666 5669 5672 5675 5678 5680 5683 5686 5689 5693 5696 5700 5704 5708 5712 5716 5721 5725 5729 5734
5651 5649 5647 5645 5643 5641 5640 5636 5639 5636 5634 5632 5631 5630 5630 5630 5631 5632 5634 5636 5638 5640 5641 5642 5644 5646 5648 5650 5652 5655 5657 5660 5663 5666 5669 5671 5674 5678 5681 5685 5689 5693 5697 5702 5706 5711 5715 5719 5723
5642 5640 5638 5635 5633 5632 5631 5627 5626 5625 5623 5621 5619 5618 5618 5618 5618 5620 5622 5624 5625 5627 5628 5629 5631 5633 5635 5638 5640 5642 5645 5648 5651 5654 5657 5660 5663 5667 5670 5674 5678 5682 5687 5691 5695 5700 5704 5708 5712
5634 5632 5628 5625 5623 5622 5621 5617 5617 5615 5612 5610 5608 5607 5606 5606 5607 5608 5610 5612 5613 5614 5615 5617 5619 5621 5623 5625 5628 5630 5633 5636 5639 5642 5645 5649 5652 5655 5659 5662 5667 5671 5675 5679 5684 5688 5693 5697 5701
5625 5623 5620 5616 5614 5613 5611 5608 5609 5606 5602 5600 5598 5596 5595 5595 5596 5597 5598 5599 5600 5601 5602 5604 5606 5608 5610 5612 5615 5618 5620 5623 5627 5630 5633 5637 5640 5644 5647 5651 5655 5659 5663 5667 5672 5677 5681 5685 5689
5616 5614 5611 5607 5604 5602 5601 5600 5599 5596 5593 5591 5588 5587 5586 5586 5587 5587 5587 5587 5588 5589 5590 5592 5593 5596 5597 5600 5602 5605 5608 5611 5614 5618 5621 5625 5628 5631 5635 5639 5643 5647 5651 5655 5660 5664 5668 5672 5676
5608 5605 5602 5598 5594 5591 5591 5590 5588 5586 5584 5582 5580 5578 5577 5577 5577 5577 5577 5577 5577 5578 5579 5580 5581 5583 5585 5587 5589 5592 5595 5598 5602 5605 5608 5612 5615 5619 5622 5626 5631 5635 5639 5643 5648 5652 5656 5659 5663
5600 5597 5593 5589 5586 5583 5580 5583 5580 5577 5574 5572 5570 5568 5568 5567 5567 5567 5566 5566 5566 5567 5567 5568 5569 5571 5572 5574 5577 5580 5582 5585 5588 5592 5595 5599 5602 5606 5610 5614 5618 5622 5626 5630 5634 5638 5642 5646 5650
5590 5588 5585 5582 5579 5575 5571 5575 5571 5568 5565 5563 5561 5560 5559 5558 5557 5556 5555 5555 5556 5556 5557 5558 5558 5559 5561 5562 5565 5567 5570 5572 5576 5579 5582 5586 5589 5593 5597 5600 5604 5609 5613 5617 5621 5625 5629 5633 5637